This is the latest recevied weather packets stored in our database for station/object DB0ASF-4. If no packets are shown the sender has not sent any weather packets the latest 10 day(s).
| Time | Temp. | Humidity | Pressure | Rain* | Wind** | Luminosity | Snow |
|---|---|---|---|---|---|---|---|
| 1777111754 | 20° C | 42% | 1024 hPa | 0 mm | - | - | - |
| 1777111154 | 19.44° C | 42% | 1024.1 hPa | 0 mm | - | - | - |
| 1777110554 | 18.33° C | 45% | 1024.1 hPa | 0 mm | - | - | - |
| 1777109954 | 17.22° C | 49% | 1024.1 hPa | 0 mm | - | - | - |
| 1777109354 | 16.11° C | 52% | 1024 hPa | 0 mm | - | - | - |
| 1777108754 | 15.56° C | 53% | 1024.3 hPa | 0 mm | - | - | - |
| 1777108154 | 15.56° C | 56% | 1024.3 hPa | 0 mm | - | - | - |
| 1777107554 | 15° C | 58% | 1024.4 hPa | 0 mm | - | - | - |
| 1777106954 | 13.89° C | 62% | 1024 hPa | 0 mm | - | - | - |
| 1777106354 | 12.78° C | 64% | 1024.1 hPa | 0 mm | - | - | - |
| 1777105754 | 12.78° C | 65% | 1024.3 hPa | 0 mm | - | - | - |
| 1777105154 | 12.22° C | 67% | 1024.3 hPa | 0 mm | - | - | - |
| 1777104554 | 11.67° C | 70% | 1024.3 hPa | 0 mm | - | - | - |
| 1777103954 | 10.56° C | 72% | 1024.3 hPa | 0 mm | - | - | - |
| 1777103354 | 10.56° C | 73% | 1024.4 hPa | 0 mm | - | - | - |
| 1777102754 | 9.44° C | 76% | 1024.4 hPa | 0 mm | - | - | - |
| 1777102154 | 8.89° C | 77% | 1024.4 hPa | 0 mm | - | - | - |
| 1777101554 | 8.33° C | 78% | 1024.5 hPa | 0 mm | - | - | - |
| 1777100954 | 7.78° C | 80% | 1024.6 hPa | 0 mm | - | - | - |
| 1777100354 | 7.78° C | 81% | 1024.5 hPa | 0 mm | - | - | - |
| 1777099754 | 7.22° C | 81% | 1024.6 hPa | 0 mm | - | - | - |
| 1777099154 | 6.67° C | 82% | 1024.6 hPa | 0 mm | - | - | - |
| 1777098554 | 6.11° C | 82% | 1024.6 hPa | 0 mm | - | - | - |
| 1777097954 | 6.11° C | 82% | 1024.6 hPa | 0 mm | - | - | - |
| 1777097354 | 5.56° C | 82% | 1024.6 hPa | 0 mm | - | - | - |
* Rain latest hour (hover to see other rain measurements)
** Current wind speed in m/s (hover to see current wind gust speed)